User: anonymous   Login
Location: Unspecified
(0.0000°N, 0.0000°E)
Time: 10:23:57
(UTC+00:00)
Language:

YUBILEINY - Orbit

View from above orbital plane
View from above orbital plane
View from above satellite
View from above satellite

Ground track
Ground track

The orbit data is extracted from the following two-line orbital elements,

1 32953U 08025A   22272.84502550  .00000024  00000-0  10000-3 0  9991
2 32953  82.5003 119.0300 0019982  33.5467 326.6870 12.43113557651302
Epoch (UTC): 29 September 2022 20:16:50
Eccentricity: 0.0019982
inclination: 82.5003°
perigee height: 1478 km
apogee height: 1509 km
right ascension of ascending node: 119.0300°
argument of perigee: 33.5467°
revolutions per day: 12.43113557
mean anomaly at epoch: 326.6870°
orbit number at epoch: 65130

The dashed part of the orbit path shows where the satellite is in the earth's shadow,  

DLR